Greenland, AR

9:43 PM CST on February 12, 2016 (GMT -0600)
Drake

Weather History for KFYV - February, 2012

Change the Weather History Date:

Wednesday, February 22, 2012

  Actual Average Record
Temperature  
Mean Temperature 52 °F 42 °F  
Max Temperature 68 °F 53 °F 87 °F (1996)
Min Temperature 37 °F 30 °F 4 °F (1963)
Degree Days  
Heating Degree Days 12 23  
Month to date heating degree days 574  
Since 1 July heating degree days 3168  
Growing Degree Days 2 (Base 50)    
Moisture  
Dew Point 37 °F    
Average Humidity 55    
Maximum Humidity 82    
Minimum Humidity 28    
Precipitation  
Precipitation 0.00 in 0.11 in 0.43 in (2003)
Month to date precipitation 2.14  
Year to date precipitation 4.98  
Sea Level Pressure  
Sea Level Pressure 29.65 in    
Wind  
Wind Speed 6 mph (SW)    
Max Wind Speed 18 mph    
Max Gust Speed 24 mph    
Visibility 10 miles    
Events      
T = Trace of Precipitation, MM = Missing Value Source: NWS Daily Summary

Daily Weather History Graph

Daily Weather History Graph

Search for Another Location

Airport or City:

Trip Planner

Search our weather history database for the weather conditions in past years. The results will help you decide how hot, cold, wet, or windy it might be!

Date:

Astronomy

Feb. 22, 2012 Rise Set
Actual Time 6:56 AM CST 6:04 PM CST
Civil Twilight 6:30 AM CST 6:30 PM CST
Nautical Twilight 6:00 AM CST 7:00 PM CST
Astronomical Twilight 5:30 AM CST 7:30 PM CST
Moon 6:58 AM CST (2/22) 7:07 PM CST (2/22)
Length of Visible Light 12h 00m
Length of Day
11h 08m
New Moon, 1% of the Moon is Illuminated
Feb 22
New Moon
Feb 29
First Quarter
Mar 8
Full
Mar 14
Last Quarter
Mar 22
New

Hourly Weather History & Observations

Time (CST) Temp. Windchill Dew Point Humidity Pressure Visibility Wind Dir Wind Speed Gust Speed Precip Events Conditions
12:53 AM 48.0 °F - 28.0 °F 46% 29.83 in 10.0 mi SW 5.8 mph - N/A   Clear
1:53 AM 42.1 °F - 30.0 °F 62% 29.81 in 10.0 mi Calm Calm - N/A   Scattered Clouds
2:53 AM 42.1 °F - 30.0 °F 62% 29.79 in 10.0 mi Calm Calm - N/A   Clear
3:53 AM 37.9 °F 33.5 °F 30.9 °F 76% 29.76 in 10.0 mi South 5.8 mph - N/A   Clear
4:53 AM 37.4 °F - 30.2 °F 75% 29.74 in 10.0 mi Calm Calm - N/A   Clear
5:53 AM 43.0 °F 38.2 °F 37.0 °F 80% 29.72 in 10.0 mi SSW 8.1 mph - N/A   Clear
6:53 AM 45.0 °F 40.6 °F 39.9 °F 82% 29.73 in 10.0 mi SSW 8.1 mph - N/A   Clear
7:53 AM 50.0 °F - 43.0 °F 77% 29.73 in 10.0 mi SSW 6.9 mph - N/A   Clear
8:53 AM 54.0 °F - 45.0 °F 72% 29.73 in 10.0 mi South 9.2 mph - N/A   Clear
9:53 AM 57.9 °F - 46.9 °F 67% 29.69 in 10.0 mi SSW 11.5 mph - N/A   Clear
10:53 AM 61.0 °F - 46.0 °F 58% 29.68 in 10.0 mi West 6.9 mph - N/A   Clear
11:53 AM 64.0 °F - 46.0 °F 52% 29.63 in 10.0 mi SSW 11.5 mph 20.7 mph N/A   Clear
12:53 PM 66.0 °F - 45.0 °F 47% 29.61 in 10.0 mi SSW 11.5 mph - N/A   Clear
1:53 PM 68.0 °F - 39.0 °F 35% 29.58 in 10.0 mi West 11.5 mph 23.0 mph N/A   Clear
2:53 PM 68.0 °F - 35.1 °F 30% 29.58 in 10.0 mi WSW 18.4 mph 24.2 mph N/A   Clear
3:53 PM 68.0 °F - 34.0 °F 28% 29.56 in 10.0 mi West 12.7 mph 20.7 mph N/A   Clear
4:53 PM 66.9 °F - 33.1 °F 28% 29.56 in 10.0 mi WSW 12.7 mph 21.9 mph N/A   Clear
5:53 PM 62.1 °F - 36.0 °F 38% 29.56 in 10.0 mi SW 6.9 mph - N/A   Clear
6:53 PM 60.1 °F - 35.1 °F 39% 29.58 in 10.0 mi SW 4.6 mph - N/A   Clear
7:53 PM 48.9 °F - 37.0 °F 64% 29.58 in 10.0 mi South 5.8 mph - N/A   Clear
8:53 PM 51.1 °F - 36.0 °F 56% 29.56 in 10.0 mi South 5.8 mph - N/A   Clear
9:53 PM 53.1 °F - 36.0 °F 52% 29.55 in 10.0 mi SSW 3.5 mph - N/A   Clear
10:53 PM 51.1 °F - 35.1 °F 54% 29.53 in 10.0 mi SSW 4.6 mph - N/A   Clear
11:53 PM 54.0 °F - 33.1 °F 45% 29.50 in 10.0 mi Calm Calm - N/A   Clear